Location: site
(53.0000°N, 23.0500°E)
Time: 17:33:50
(UTC+01:00)

SAOCOM 1-A - Visible Passes

Search period start: 17 January 2020 00:00
Search period end: 27 January 2020 00:00
Orbit: 621 x 623 km, 97.9° (Epoch: 17 January)

Date Brightness Start Highest point End Pass type
(mag) Time Alt. Az. Time Alt. Az. Time Alt. Az.
17 Jan ? 03:56:15 10° SE 03:59:19 34° E 03:59:19 34° E visible
17 Jan ? 05:32:40 10° SSW 05:36:31 30° W 05:36:32 30° W visible
17 Jan ? 17:14:07 14° NE 17:17:24 32° E 17:21:19 10° SSE visible
17 Jan ? 18:51:19 21° NNW 18:53:36 36° WNW 18:57:35 10° SW visible
18 Jan ? 04:13:59 10° SSE 04:17:38 50° E 04:17:38 50° E visible
18 Jan ? 05:51:22 10° SW 05:54:42 21° W 05:54:52 21° W visible
18 Jan ? 17:32:08 15° NNE 17:35:32 46° E 17:39:43 10° S visible
18 Jan ? 19:09:20 18° NNW 19:11:30 26° WNW 19:15:07 10° WSW visible
19 Jan ? 02:58:32 10° E 02:58:45 11° E 02:58:45 11° E visible
19 Jan ? 04:31:52 10° SSE 04:35:58 75° ESE 04:35:58 75° ESE visible
19 Jan ? 06:10:25 10° WSW 06:12:56 15° W 06:13:11 15° W visible
19 Jan ? 17:50:09 16° NNE 17:53:37 68° ESE 17:57:57 10° S visible
19 Jan ? 19:27:20 15° NNW 19:29:22 19° WNW 19:32:28 10° WSW visible
20 Jan ? 03:15:32 10° E 03:17:05 16° E 03:17:05 16° E visible
20 Jan ? 04:49:55 10° S 04:54:15 72° WSW 04:54:19 72° W visible
20 Jan ? 06:30:37 10° W 06:31:14 10° W 06:31:32 10° W visible
20 Jan ? 16:32:32 10° NE 16:34:54 14° E 16:37:15 10° ESE visible
20 Jan ? 18:08:08 16° NNE 18:11:40 83° WNW 18:16:01 10° SSW visible
20 Jan ? 19:45:20 12° NNW 19:47:11 15° NW 19:49:33 10° W visible
21 Jan ? 03:32:51 10° ESE 03:35:26 23° E 03:35:26 23° E visible
21 Jan ? 05:08:07 10° S 05:12:19 49° W 05:12:40 48° W visible
21 Jan ? 16:49:53 10° NE 16:53:09 20° E 16:56:23 10° SE visible
21 Jan ? 18:26:07 15° N 18:29:40 58° WNW 18:33:56 10° SSW visible
21 Jan ? 20:03:55 10° NW 20:04:57 11° NW 20:05:59 10° WNW visible
22 Jan ? 03:50:22 10° SE 03:53:48 33° E 03:53:48 33° E visible
22 Jan ? 05:26:30 10° SSW 05:30:28 34° W 05:31:02 33° W visible
22 Jan ? 17:07:32 10° NNE 17:11:21 29° E 17:15:07 10° SSE visible
22 Jan ? 18:44:05 13° N 18:47:38 40° WNW 18:51:41 10° SW visible
23 Jan ? 04:08:03 10° SE 04:12:11 48° ENE 04:12:11 48° ENE visible
23 Jan ? 05:45:06 10° SSW 05:48:38 24° W 05:49:25 23° WNW visible
23 Jan ? 17:25:21 10° NNE 17:29:29 41° E 17:33:36 10° S visible
23 Jan ? 19:02:03 11° N 19:05:32 29° WNW 19:09:17 10° WSW visible
24 Jan ? 02:52:57 10° ENE 02:53:21 11° ENE 02:53:21 11° ENE visible
24 Jan ? 04:25:53 10° SSE 04:30:12 70° ENE 04:30:35 65° NE visible
24 Jan ? 06:04:00 10° SW 06:06:51 17° W 06:07:48 16° WNW visible
24 Jan ? 17:43:16 10° NNE 17:47:36 60° ESE 17:51:53 10° S visible
24 Jan ? 19:20:06 10° N 19:23:25 21° WNW 19:26:42 10° WSW visible
25 Jan ? 03:09:49 10° E 03:11:46 16° ENE 03:11:46 16° ENE visible
25 Jan ? 04:43:52 10° SSE 04:48:13 82° WSW 04:48:59 60° NNW visible
25 Jan ? 06:23:32 10° WSW 06:25:07 12° W 06:26:13 11° WNW visible
25 Jan ? 18:01:16 10° NNE 18:05:39 87° ESE 18:10:00 10° SSW visible
25 Jan ? 19:38:35 10° NNW 19:41:14 16° NW 19:43:53 10° W visible
26 Jan ? 03:27:03 10° ESE 03:30:12 22° ENE 03:30:12 22° ENE visible
26 Jan ? 05:02:01 10° S 05:06:17 56° W 05:07:25 42° NW visible
26 Jan ? 16:44:03 10° NE 16:47:04 18° E 16:50:04 10° SE visible
26 Jan ? 18:19:20 10° N 18:23:40 65° WNW 18:27:58 10° SSW visible
26 Jan ? 19:57:24 10° NNW 19:59:01 12° NW 20:00:39 10° WNW visible
